Terug naar catalogus

THORAD AGENA D DEB

ActiefSSO
NORAD 4766·DEBRIS·🇺🇸 United States

Gelanceerd Apr 8, 1970 vanaf Vandenberg Space Force Base

Loading…

Volgende Passages (komende 24 uur)

TLE

VersSource: Space-Track

Epoch: Sep 14, 2026, 09:48 UTC

1 04766U 70025DL  26257.40873417  .00000021  00000-0  97730-4 0  9996
2 04766 100.1470  53.2213 0009778 129.7925 259.6359 13.55960558788728

Volg THORAD AGENA D DEB in realtime met AllMySat

Download on the App Store